Location: DARK SKY Beskydy - Park tmavé oblohy, www.darkskybeskydy.cz
(49.4926°N, 18.5016°E)
Time: 15:06:56
(UTC+01:00)

Vanguard 1 - Pass Details

Date: 16 November 2025
Orbit: 650 x 3821 km, 34.2° (Epoch: 07 December)

Event Time Altitude Azimuth Distance (km) Brightness Sun altitude
Rises 18:28:05 0° 254° (WSW) 7,296 15.8 -23.5°
Reaches altitude 10° 18:32:47 10° 250° (WSW) 6,536 15.2 -24.2°
Maximum altitude 18:54:10 52° 183° (S) 4,333 13.2 -27.7°
Enters shadow 19:05:50 30° 128° (SE) 4,903 13.1 -29.6°
